{"data":{"norad_id":49280,"intl_designator":"2021-090B","name":"ONEWEB-0347","alt_names":[],"object_type":"PAYLOAD","status":"ACTIVE","operator":null,"country":"UK","launch_date":"2021-10-14","launch_site_code":"VOSTO","launch_vehicle":null,"mission":null,"orbit_class":"UNKNOWN","rcs_meters":null,"size_class":null,"mass_kg":null,"dimensions":null,"purposes":["comms"],"wikipedia_slug":null,"has_3d_model":false,"image_url":null,"decayed_at":null,"tle_current":{"epoch":"2026-05-25T02:09:50.606784Z","epoch_age_seconds":63366,"freshness":"FRESH","line1":"1 49280U 21090B   26145.09016906 -.00001013  00000+0 -25230-2 0  9994","line2":"2 49280  87.9177 279.0457 0001913  91.7888 268.3465 13.20762310227991","mean_motion":13.2076231,"eccentricity":0.0001913,"inclination_deg":87.9177,"raan_deg":279.0457,"arg_perigee_deg":91.7888,"mean_anomaly_deg":268.3465,"bstar":-0.002523,"rev_number":22799,"period_min":109.02794462692,"perigee_km":1180.363417453,"apogee_km":1183.2558530356,"semimajor_km":7559.9466352443,"source":"CELESTRAK","updated_at":"2026-05-25T13:38:22.519232Z"}}}